Tracking 29892 objects as of 21-Nov-2024
HD Live streaming from Space Station
objects crossing your sky now

IRIDIUM 33 DEB

Track IRIDIUM 33 DEB now!
10-day predictions


NORAD ID: 34376
Int'l Code: 1997-051FU
Perigee: 700.0 km
Apogee: 746.1 km
Inclination: 86.3 °
Period: 99.1 minutes
Semi major axis: 7094 km
RCS: 0.0229 m2 (small)
Launch date: September 14, 1997
Source: United States (US)
Launch site: TYURATAM MISSILE AND SPACE COMPLEX (TTMTR)

Note: This is SATELLITE DEBRIS
Your satellite tracking list
Your tracking list is empty




NASA's NSSDC Master Catalog

Two Line Element Set (TLE):
1 34376U 97051FU  24325.80784700  .00009840  00000-0  23638-2 0  9990
2 34376  86.3057 179.0973 0032496  44.9017 315.4809 14.52975873825308
Source of the keplerian elements: AFSPC